星链-2310 (STARLINK-2310 )

导读 | 星芒AI

STARLINK-2310 是 SpaceX Starlink 项目中的一颗低轨通信卫星,旨在为全球用户提供高速互联网服务。该卫星采用先进的推进和通信技术,具备自动避撞功能,以确保在拥挤的近地轨道上安全运行。作为 Starlink 卫星群的一部分,它支持全球范围内的宽带接入,特别是在偏远和网络基础设施薄弱的地区。STARLINK-2310 的发射和运行有助于提升 Starlink 网络的覆盖能力与服务质量。

基本信息
目录编号:
47865
目录名称:
STARLINK-2310
国际标识:
2021-021F
轨道中心:
EARTH
卫星名称:
星链-2310
卫星全名:
星链-2310 (STARLINK-2310 )
卫星状态:
已陨落 最后检测时间 2025-03-03
发射日期:
2021-03-14 UTC
国别 :
美国 (US)
星等 :
--
轨道信息
数据来源 国际轨道数据
星历时间: 2025-03-03T21:00:57+0800
轨道信息已过期288天
半长轴: 6538.439km
偏心率: 0.0002655
轨道倾角: 53.020°
近地点辐角 13.003°
升交点赤经 90.695°
平近点角 125.350°
近地点: 158.568km
远地点: 162.04km
周期: 87.694分钟
每日圈数: 16.420703
详细信息
固有亮度:
5
最大亮度:
2.5
卫星平台:
Starlink V1.0
覆盖范围:
全球
运营商:
太空探索技术公司
运营商所在国:
美国
制造商(研发单位):
太空探索技术公司
制造商所在国:
美国
使用方式:
暂无
卫星简介
星链(Starlink)计划是由太空探索技术公司(SpaceX)提出的一个巨型低轨卫星互联网星座项目,计划在2019年至2024年间在太空搭建由约1.2万颗卫星组成的“星链”网络,其中1584颗将部署在地球上空550千米处的近地轨道,并从2020年开始工作。该卫星仍在工作。